Погода в Троицком

Россия / Алтайский край     52°22′36″N   83°31′00″E
темп.,
°C
ветер,
м/с
пор.,
м/с
влажн.,
%
обл.,
%
осадки,
мм/ч
давл.,
гПа
погр.,
м
16 июня, ср
ср1601:00+13ююв22816 0.0 101611
04:00+13юв11823 0.0 101510
07:00+15юв11755 0.0 101548
10:00+21ю11555 0.0 1015389
13:00+25ююз11491 0.0 10151154
16:00+26зсз12430 0.0 10131885
19:00+26ююз22501 0.0 10121158
22:00+19ю33664 0.0 101225
17 июня, чт
чт1701:00+17ююз22723 0.0 101312
04:00+16ююз337074 0.0 101235
07:00+18юз226711 0.0 101265
10:00+23ююз2352100 0.0 1011389
13:00+26юз3447100 0.0 1011935
16:00+28зюз47426 0.0 10092397
19:00+25сз48564 0.0 1009415
22:00+20зсз12622 0.0 100911
18 июня, пт
пт1801:00+18ююз11725 0.0 100911
04:00+17зсз22750 0.0 100911
07:00+18ююз23744 0.0 100870
10:00+24юз22590 0.0 1008458
13:00+27зюз23440 0.0 10071866
16:00+28зюз22372 0.0 10062530
19:00+28ююз12420 0.0 10042005
22:00+21ююв33671 0.0 100431
19 июня, сб
сб1901:00+19ююв337452 0.0 100237
04:00+18ююв337748 0.0 100240
07:00+19юв36798 0.0 1001127
10:00+24юв455813 0.0 1000322
13:00+29ю46413 0.0 9991322
16:00+31юз46365 0.0 9971970
19:00+29ю365216 0.0 996368
22:00+18ююз81480100 3.9 998243
20 июня, вс
вс2001:00+18ю4980100 4.1 997131
04:00+16з61391100 0.0 1000480
07:00+13з61090100 0.6 1005594
10:00+15зюз6106940 0.0 1008908
13:00+17юз9125616 0.0 10101298
16:00+19юз8124296 0.0 10091745
19:00+18ююз4750100 0.0 10101011
22:00+14юв4664100 0.0 101184